Hope, British Columbia

6:38 AM PDT on April 23, 2017 (GMT -0700)
Hope

Weather History for CYHE - October, 2011

Change the Weather History Date:

Tuesday, October 25, 2011

  Actual Average Record
Temperature  
Mean Temperature 45 °F -  
Max Temperature 53 °F 47 °F 61 °F (2015)
Min Temperature 37 °F 36 °F 37 °F (2002)
Degree Days  
Heating Degree Days 20    
Moisture  
Dew Point 41 °F    
Average Humidity 93    
Maximum Humidity 100    
Minimum Humidity 58    
Precipitation  
Precipitation 0.00 in 0.35 in - ()
Sea Level Pressure  
Sea Level Pressure 30.45 in    
Wind  
Wind Speed 3 mph ()    
Max Wind Speed 9 mph    
Max Gust Speed -    
Visibility 7.1 miles    
Events      
Averages and records for this station are not official NWS values.
T = Trace of Precipitation, MM = Missing Value Source: Averaged Metar Reports

Daily Weather History Graph

Daily Weather History Graph

Search for Another Location

Airport or City:

Trip Planner

Search our weather history database for the weather conditions in past years. The results will help you decide how hot, cold, wet, or windy it might be!

Date:

Astronomy

Oct. 25, 2011 Rise Set
Actual Time 7:42 AM PDT 5:56 PM PDT
Civil Twilight 7:09 AM PDT 6:29 PM PDT
Nautical Twilight 6:32 AM PDT 7:06 PM PDT
Astronomical Twilight 5:55 AM PDT 7:43 PM PDT
Moon 6:19 AM PDT (10/25) 5:00 PM PDT (10/25)
Length of Visible Light 11h 19m
Length of Day
10h 14m
Waning Crescent, 2% of the Moon is Illuminated
Oct 25
Waning Crescent
Oct 26
New
Nov 2
First Quarter
Nov 10
Full
Nov 18
Last Quarter

Hourly Weather History & Observations

Time (PDT) Temp. Windchill Dew Point Humidity Pressure Visibility Wind Dir Wind Speed Gust Speed Precip Events Conditions
12:00 AM 42.8 °F - 42.8 °F 100% 30.40 in 2.0 mi Calm Calm - N/A   Overcast
12:13 AM 42.8 °F - 42.8 °F 100% 30.40 in 4.0 mi Calm Calm - N/A   Overcast
12:16 AM 42.8 °F - 42.8 °F 100% 30.40 in 2.5 mi Calm Calm - N/A   Overcast
12:34 AM 42.8 °F - 42.8 °F 100% 30.41 in 1.0 mi Variable 2.3 mph - N/A   Mostly Cloudy
12:40 AM 42.8 °F - 42.8 °F 100% 30.41 in 3.0 mi Variable 2.3 mph - N/A   Overcast
12:43 AM 42.8 °F 41.1 °F 42.8 °F 100% 30.41 in 5.0 mi East 3.5 mph - N/A   Overcast
12:44 AM 44.6 °F 43.1 °F - N/A% 30.41 in 7.0 mi East 3.5 mph - N/A   Overcast
1:00 AM 44.6 °F 43.1 °F 42.8 °F 93% 30.42 in 9.0 mi ESE 3.5 mph - N/A   Overcast
2:00 AM 42.8 °F - 42.8 °F 100% 30.42 in 9.0 mi Calm Calm - N/A   Overcast
2:01 AM 42.8 °F - 42.8 °F 100% 30.42 in 9.0 mi Calm Calm - N/A   Overcast
3:00 AM 44.6 °F 41.4 °F 42.8 °F 93% 30.43 in 9.0 mi East 5.8 mph - N/A   Overcast
3:50 AM 42.8 °F - 42.8 °F 100% 30.43 in 5.0 mi SE 2.3 mph - N/A   Overcast
3:56 AM 42.8 °F 41.1 °F 42.8 °F 100% 30.43 in 6.0 mi East 3.5 mph - N/A   Overcast
4:00 AM 42.8 °F 41.1 °F 42.8 °F 100% 30.43 in 9.0 mi East 3.5 mph - N/A   Overcast
4:16 AM 42.8 °F 40.1 °F 42.8 °F 100% 30.44 in 9.0 mi East 4.6 mph - N/A   Overcast
4:35 AM 42.8 °F 39.3 °F 41.0 °F 93% 30.44 in 5.0 mi ESE 5.8 mph - N/A   Overcast
4:41 AM 42.8 °F 40.1 °F 41.0 °F 93% 30.45 in 3.0 mi ESE 4.6 mph - N/A   Overcast
5:07 AM 42.8 °F 41.1 °F 42.8 °F 100% 30.45 in 6.0 mi East 3.5 mph - N/A   Overcast
5:18 AM 42.8 °F 40.1 °F 42.8 °F 100% 30.46 in 9.0 mi East 4.6 mph - N/A   Overcast
6:00 AM 42.8 °F 40.1 °F 42.8 °F 100% 30.47 in 9.0 mi ENE 4.6 mph - N/A   Overcast
6:07 AM 42.8 °F 41.1 °F 42.8 °F 100% 30.47 in 9.0 mi ENE 3.5 mph - N/A   Overcast
7:00 AM 42.8 °F 38.6 °F 41.0 °F 93% 30.48 in 9.0 mi East 6.9 mph - N/A   Overcast
7:09 AM 42.8 °F 38.0 °F 41.0 °F 93% 30.48 in 9.0 mi East 8.1 mph - N/A   Overcast
7:34 AM 42.8 °F 38.6 °F 41.0 °F 93% 30.49 in 9.0 mi East 6.9 mph - N/A   Overcast
8:00 AM 42.8 °F 37.5 °F 41.0 °F 93% 30.49 in 9.0 mi ESE 9.2 mph - N/A   Mostly Cloudy
9:00 AM 42.8 °F 38.6 °F 39.2 °F 87% 30.51 in 9.0 mi ESE 6.9 mph - N/A   Mostly Cloudy
12:00 PM 50.0 °F - 41.0 °F 71% 30.50 in 9.0 mi East 6.9 mph - N/A   Clear
1:00 PM 51.8 °F - 39.2 °F 62% 30.48 in 9.0 mi SE 6.9 mph - N/A   Clear
2:00 PM 53.6 °F - 39.2 °F 58% 30.46 in 9.0 mi SSE 4.6 mph - N/A   Clear
3:00 PM 50.0 °F - 41.0 °F 71% 30.45 in 9.0 mi West 3.5 mph - N/A   Clear
4:00 PM 44.6 °F - 41.0 °F 87% 30.44 in 9.0 mi Calm Calm - N/A   Clear
5:00 PM 44.6 °F - 41.0 °F 87% 30.43 in 9.0 mi Calm Calm - N/A   Clear
6:00 PM 42.8 °F - 39.2 °F 87% 30.44 in 9.0 mi Variable 2.3 mph - N/A   Clear
7:00 PM 42.8 °F - 39.2 °F 87% 30.45 in 9.0 mi Variable 2.3 mph - N/A   Clear
9:00 PM 41.0 °F 39.0 °F 39.2 °F 93% 30.45 in 9.0 mi NNE 3.5 mph - N/A   Clear
10:00 PM 41.0 °F 39.0 °F 39.2 °F 93% 30.46 in 9.0 mi ENE 3.5 mph - N/A   Clear
11:00 PM 39.2 °F 34.2 °F 37.4 °F 93% 30.46 in 9.0 mi East 6.9 mph - N/A   Clear
11:29 PM 37.4 °F 30.8 °F 37.4 °F 100% 30.45 in 5.0 mi East 9.2 mph - N/A   Partly Cloudy
11:33 PM 37.4 °F 32.1 °F 37.4 °F 100% 30.45 in 2.0 mi East 6.9 mph - N/A   Partly Cloudy
11:40 PM 39.2 °F 34.2 °F 37.4 °F 93% 30.45 in 3.0 mi East 6.9 mph - N/A   Partly Cloudy
11:42 PM 39.2 °F 35.0 °F 37.4 °F 93% 30.45 in 6.0 mi ENE 5.8 mph - N/A   Partly Cloudy